STARLINK-1799, 46699

Orbit data source: Space-Track

STARLINK-1799, 46699 is a payload satellite owned by SpaceX/Seattle (US) in LEO that was launched on Sun, 18 Oct 2020 UTC via an FALCON 9 launch vehicle from the Air Force Eastern Test Range (AFETR). Payload-class satellites include a variety of spacecraft equipped with specific instruments for various scientific and technological missions. These include communications satellites like Starlink; space stations such as the ISS; scientific satellites like the Hubble; Earth observation satellites from companies like Planet Labs, Umbra, and HawkEye 360; GPS; miniature CubeSats for education and research; and military/defense satellites.

Loading next visibility...
Identifier
46699, 2020-073AF
Orbit
LEO
Country
Flag of USUS
Related business
Manufacturer
SpaceX/Seattle
Mission
Operational Commercial Communications
Bus & Motor
STARLINK, Unknown motor
Mass
260 kg wet, ~248 kg dry
Launch date (UTC)
2020-10-18 (5 years ago)
Launch vehicle
FALCON 9
Launch site
Air Force Eastern Test Range (AFETR)
Object type
Payload
Rocket body
Debris
Shape & HBR
Box + 1 Pan, 4.4 m
Radar Cross Section
13.562 m², Large (>1 m²)

Expand to show TLE details & history
Last TLE update: 14 hours ago

TLE from 14 hours ago
0 STARLINK-1799
1 46699U 20073AF  25261.08919776 -.00001043  00000-0 -51187-4 0  9995
2 46699  53.0544 296.4515 0001086  78.9663 281.1448 15.06387290271114
Epoch: 2025-09-18T02:08Z
TLE epoch observation values (Epoch: 2025-09-18T02:08:26.686Z)
Latitude
-0.00003°
Longitude
-92.91551°
Altitude
547.984 km
Speed
7.589 km/s
True Right ascension
19h 45m 48s
True Declination
0° 00' 00"
Sunlit
Object was in full shadow at epoch
Visualization orbit readout
Latitude
Unknown
Longitude
Unknown
Altitude
Unknown
Speed
Unknown
Apparent Right ascension
Unknown
Apparent Declination
Unknown
Sunlit
N/A
Visualization observer readout
Local Sidereal Time
08:54:02
Azimuth
Unknown
Elevation
Unknown
Doppler factor
Unknown
Orbital elements
Apogee altitude
548.273 km
Perigee altitude
546.769 km
Semi-major axis
6,925.658 km
Eccentricity
0.00011
Inclination
53.0544°
RAAN
296.4515°
Arg. of periapsis
78.9663°
True anomaly
281.13259°
Mean anomaly
281.1448°
Eccentric anomaly
281.13869°
Mean motion
3.76575 °/min
Orbital period
95.6 mins
BSTAR
-0.000051187
Loading maneuver chart data...
Computing Atmospheric mass density...
Loading historical data...
Loading historical data...
Loading historical data...
Loading historical data...
Loading historical data...
Loading historical data...
Loading historical data...

Documentation

Showing up to 5 results
|